| time (UTC) | temp F | wind direction | speed MPH | gust MPH | rain 1hr in | rain 24hr in | rain mn in | humidity % | barometer mb |
| 20260510230011 | 74 | 275 | 0.0 | 7.0 | 0.00 | 0.02 | 0.01 | 27 | 1023.9 |
| 20260510224513 | 74 | 274 | 1.0 | 7.0 | 0.00 | 0.02 | 0.01 | 28 | 1024.0 |
| 20260510223005 | 74 | 275 | 3.0 | 6.0 | 0.00 | 0.02 | 0.01 | 25 | 1024.2 |
| 20260510221502 | 74 | 275 | 2.0 | 6.0 | 0.00 | 0.02 | 0.01 | 27 | 1024.3 |
| 20260510220100 | 73 | 275 | 1.0 | 6.0 | 0.00 | 0.02 | 0.01 | 28 | 1024.2 |
| 20260510214559 | 73 | 275 | 1.0 | 6.0 | 0.00 | 0.02 | 0.01 | 28 | 1024.4 |
| 20260510213058 | 72 | 275 | 3.0 | 9.0 | 0.00 | 0.02 | 0.01 | 29 | 1024.6 |
| 20260510211604 | 71 | 275 | 3.0 | 10.0 | 0.00 | 0.02 | 0.01 | 28 | 1024.6 |
| 20260510210059 | 72 | 273 | 3.0 | 9.0 | 0.00 | 0.02 | 0.01 | 27 | 1024.6 |
| 20260510204603 | 72 | 273 | 2.0 | 9.0 | 0.00 | 0.02 | 0.01 | 29 | 1024.7 |
| 20260510203054 | 71 | 273 | 5.0 | 11.0 | 0.00 | 0.02 | 0.01 | 29 | 1024.8 |
| 20260510201553 | 71 | 268 | 2.0 | 8.0 | 0.00 | 0.02 | 0.01 | 29 | 1024.7 |
| 20260510200105 | 71 | 271 | 2.0 | 13.0 | 0.00 | 0.02 | 0.01 | 31 | 1024.8 |
| 20260510194605 | 71 | 272 | 3.0 | 11.0 | 0.00 | 0.02 | 0.01 | 32 | 1024.8 |
| 20260510193053 | 70 | 273 | 1.0 | 9.0 | 0.00 | 0.02 | 0.01 | 32 | 1024.8 |
| 20260510191546 | 70 | 280 | 4.0 | 11.0 | 0.00 | 0.02 | 0.01 | 36 | 1024.9 |
| 20260510190049 | 69 | 287 | 4.0 | 14.0 | 0.00 | 0.02 | 0.01 | 37 | 1025.0 |
| 20260510184546 | 67 | 274 | 2.0 | 12.0 | 0.00 | 0.02 | 0.01 | 38 | 1025.3 |
| 20260510183038 | 66 | 259 | 2.0 | 7.0 | 0.00 | 0.02 | 0.01 | 39 | 1025.3 |
| 20260510181536 | 66 | 259 | 4.0 | 10.0 | 0.00 | 0.02 | 0.01 | 40 | 1025.4 |
| 20260510180035 | 66 | 271 | 3.0 | 12.0 | 0.00 | 0.02 | 0.01 | 44 | 1025.3 |
| 20260510174532 | 64 | 269 | 2.0 | 12.0 | 0.00 | 0.02 | 0.01 | 45 | 1025.2 |
| 20260510173029 | 65 | 275 | 3.0 | 11.0 | 0.00 | 0.02 | 0.01 | 51 | 1025.2 |
| 20260510171525 | 63 | 273 | 2.0 | 9.0 | 0.00 | 0.02 | 0.01 | 56 | 1025.1 |
| 20260510170020 | 61 | 275 | 2.0 | 8.0 | 0.00 | 0.02 | 0.01 | 64 | 1024.8 |
| 20260510164517 | 60 | 272 | 2.0 | 10.0 | 0.00 | 0.02 | 0.01 | 64 | 1024.7 |
| 20260510163016 | 58 | 265 | 3.0 | 12.0 | 0.00 | 0.02 | 0.01 | 71 | 1024.5 |
| 20260510161523 | 56 | 248 | 3.0 | 9.0 | 0.00 | 0.02 | 0.01 | 79 | 1024.4 |
| 20260510160023 | 53 | 207 | 2.0 | 5.0 | 0.00 | 0.02 | 0.01 | 86 | 1024.3 |
| 20260510154516 | 51 | 206 | 0.0 | 4.0 | 0.00 | 0.02 | 0.01 | 86 | 1024.5 |
| 20260510153013 | 50 | 206 | 0.0 | 3.0 | 0.00 | 0.02 | 0.01 | 85 | 1024.2 |
| 20260510151521 | 49 | 206 | 0.0 | 4.0 | 0.00 | 0.02 | 0.01 | 83 | 1023.7 |
| 20260510150010 | 50 | 206 | 0.0 | 2.0 | 0.00 | 0.02 | 0.01 | 83 | 1024.0 |
| 20260510144509 | 50 | 206 | 0.0 | 0.0 | 0.00 | 0.02 | 0.01 | 82 | 1024.7 |
| 20260510143010 | 50 | 206 | 0.0 | 2.0 | 0.01 | 0.02 | 0.01 | 81 | 1024.4 |
| 20260510141507 | 50 | 206 | 0.0 | 3.0 | 0.01 | 0.02 | 0.01 | 81 | 1024.3 |
| 20260510140005 | 50 | 206 | 0.0 | 3.0 | 0.01 | 0.02 | 0.01 | 80 | 1024.3 |
| 20260510134502 | 50 | 206 | 0.0 | 5.0 | 0.01 | 0.02 | 0.01 | 79 | 1023.9 |
| 20260510133058 | 50 | 206 | 0.0 | 5.0 | 0.00 | 0.01 | 0.00 | 78 | 1023.5 |
| 20260510131555 | 51 | 203 | 0.0 | 5.0 | 0.00 | 0.01 | 0.00 | 77 | 1022.8 |
| 20260510130052 | 52 | 205 | 0.0 | 4.0 | 0.00 | 0.01 | 0.00 | 77 | 1022.7 |
| 20260510124551 | 52 | 206 | 0.0 | 4.0 | 0.00 | 0.01 | 0.00 | 77 | 1022.3 |
| 20260510123047 | 52 | 250 | 0.0 | 8.0 | 0.00 | 0.01 | 0.00 | 77 | 1021.2 |
| 20260510121545 | 52 | 254 | 0.0 | 7.0 | 0.00 | 0.01 | 0.00 | 76 | 1020.6 |
| 20260510120042 | 53 | 254 | 0.0 | 8.0 | 0.00 | 0.01 | 0.00 | 75 | 1020.4 |
| 20260510114602 | 54 | 263 | 0.0 | 11.0 | 0.00 | 0.01 | 0.00 | 75 | 1020.5 |
| 20260510113051 | 55 | 272 | 1.0 | 10.0 | 0.00 | 0.01 | 0.00 | 73 | 1019.4 |
| 20260510111535 | 55 | 280 | 6.0 | 15.0 | 0.00 | 0.01 | 0.00 | 69 | 1018.6 |
| 20260510110039 | 56 | 271 | 8.0 | 14.0 | 0.00 | 0.01 | 0.00 | 64 | 1018.0 |
| 20260510104528 | 57 | 284 | 1.0 | 9.0 | 0.00 | 0.01 | 0.00 | 58 | 1019.4 |
| 20260510103027 | 57 | 285 | 1.0 | 8.0 | 0.00 | 0.01 | 0.00 | 58 | 1019.3 |
| 20260510101524 | 57 | 285 | 2.0 | 11.0 | 0.00 | 0.01 | 0.00 | 58 | 1019.2 |
| 20260510100030 | 57 | 273 | 3.0 | 11.0 | 0.00 | 0.01 | 0.00 | 58 | 1018.9 |
| 20260510094531 | 57 | 267 | 0.0 | 9.0 | 0.00 | 0.01 | 0.00 | 58 | 1018.9 |
| 20260510093019 | 57 | 246 | 0.0 | 8.0 | 0.00 | 0.01 | 0.00 | 59 | 1018.4 |
| 20260510091518 | 57 | 196 | 2.0 | 8.0 | 0.00 | 0.01 | 0.00 | 61 | 1018.1 |
| 20260510090016 | 57 | 275 | 1.0 | 10.0 | 0.00 | 0.01 | 0.00 | 62 | 1017.8 |
| 20260510084516 | 57 | 195 | 1.0 | 8.0 | 0.00 | 0.01 | 0.00 | 62 | 1017.8 |
| 20260510083017 | 57 | 223 | 3.0 | 10.0 | 0.00 | 0.01 | 0.00 | 63 | 1017.5 |
| 20260510081514 | 57 | 225 | 1.0 | 9.0 | 0.00 | 0.01 | 0.00 | 64 | 1017.4 |
| 20260510080016 | 57 | 223 | 2.0 | 8.0 | 0.00 | 0.01 | 0.00 | 65 | 1017.9 |
| 20260510074511 | 57 | 208 | 0.0 | 7.0 | 0.00 | 0.01 | 0.00 | 66 | 1018.4 |
| 20260510073010 | 57 | 213 | 1.0 | 5.0 | 0.00 | 0.01 | 0.00 | 67 | 1018.3 |
| 20260510071508 | 57 | 211 | 1.0 | 8.0 | 0.00 | 0.01 | 0.00 | 69 | 1018.1 |
| 20260510070114 | 57 | 279 | 0.0 | 6.0 | 0.00 | 0.01 | 0.00 | 72 | 1017.6 |
| 20260510064501 | 57 | 280 | 0.0 | 5.0 | 0.00 | 0.01 | 0.00 | 73 | 1017.4 |
| 20260510063101 | 58 | 280 | 1.0 | 10.0 | 0.00 | 0.01 | 0.00 | 72 | 1016.6 |
| 20260510061553 | 58 | 287 | 0.0 | 5.0 | 0.00 | 0.01 | 0.00 | 73 | 1015.7 |
| 20260510060050 | 57 | 288 | 0.0 | 7.0 | 0.00 | 0.01 | 0.00 | 73 | 1015.4 |
| 20260510054552 | 57 | 289 | 0.0 | 4.0 | 0.00 | 0.01 | 0.00 | 72 | 1015.0 |
| 20260510053043 | 58 | 289 | 0.0 | 3.0 | 0.00 | 0.01 | 0.00 | 70 | 1015.1 |
| 20260510051538 | 58 | 289 | 0.0 | 3.0 | 0.00 | 0.01 | 0.00 | 68 | 1014.7 |
| 20260510050035 | 59 | 289 | 0.0 | 1.0 | 0.00 | 0.01 | 0.00 | 67 | 1014.3 |
| 20260510044533 | 60 | 289 | 0.0 | 2.0 | 0.00 | 0.01 | 0.01 | 65 | 1014.4 |
| 20260510043032 | 61 | 289 | 0.0 | 5.0 | 0.00 | 0.01 | 0.01 | 64 | 1014.2 |
| 20260510041541 | 62 | 289 | 0.0 | 3.0 | 0.00 | 0.01 | 0.01 | 63 | 1013.8 |
| 20260510040029 | 62 | 289 | 3.0 | 11.0 | 0.00 | 0.01 | 0.01 | 62 | 1013.1 |
| 20260510034530 | 63 | 286 | 5.0 | 10.0 | 0.00 | 0.01 | 0.01 | 63 | 1012.4 |
| 20260510033027 | 63 | 285 | 1.0 | 9.0 | 0.00 | 0.01 | 0.01 | 62 | 1012.4 |
| 20260510031533 | 64 | 284 | 3.0 | 8.0 | 0.00 | 0.01 | 0.01 | 61 | 1012.2 |
| 20260510030025 | 65 | 285 | 1.0 | 10.0 | 0.00 | 0.01 | 0.01 | 62 | 1011.7 |
| 20260510024525 | 66 | 284 | 2.0 | 13.0 | 0.00 | 0.01 | 0.01 | 60 | 1010.8 |
| 20260510023024 | 67 | 290 | 7.0 | 11.0 | 0.00 | 0.01 | 0.01 | 60 | 1010.1 |
| 20260510021533 | 68 | 294 | 4.0 | 11.0 | 0.00 | 0.01 | 0.01 | 55 | 1009.3 |
| 20260510020028 | 69 | 347 | 4.0 | 6.0 | 0.00 | 0.01 | 0.01 | 50 | 1008.6 |
| 20260510014523 | 72 | 355 | 2.0 | 4.0 | 0.00 | 0.01 | 0.01 | 47 | 1008.1 |
| 20260510013021 | 74 | 355 | 4.0 | 6.0 | 0.00 | 0.01 | 0.01 | 44 | 1007.2 |
| 20260510011520 | 76 | 5 | 1.0 | 6.0 | 0.00 | 0.01 | 0.01 | 39 | 1006.7 |
| 20260510010019 | 77 | 360 | 2.0 | 8.0 | 0.00 | 0.01 | 0.01 | 38 | 1006.6 |
| 20260510004519 | 79 | 5 | 6.0 | 10.0 | 0.00 | 0.01 | 0.01 | 34 | 1006.4 |
| 20260510003019 | 80 | 360 | 3.0 | 11.0 | 0.00 | 0.01 | 0.01 | 36 | 1006.3 |
| 20260510001525 | 81 | 360 | 6.0 | 12.0 | 0.00 | 0.01 | 0.01 | 34 | 1006.6 |
| 20260510000017 | 82 | 15 | 8.0 | 13.0 | 0.00 | 0.01 | 0.01 | 32 | 1006.7 |
| 20260509234516 | 83 | 5 | 4.0 | 10.0 | 0.00 | 0.01 | 0.01 | 28 | 1006.6 |
| 20260509233018 | 81 | 355 | 4.0 | 13.0 | 0.00 | 0.01 | 0.01 | 31 | 1006.6 |
| 20260509231516 | 80 | 11 | 5.0 | 17.0 | 0.00 | 0.01 | 0.01 | 37 | 1006.8 |